Wind_Speed
105 105 105 105 106 106 106 107 107 107 107 107 107 107 108 108 109 109 109 110 110 110 111 111 111 111 112 112 112 112 112 112 112 112 112 112 112 112 113 113 113 113 114 114 114 114 114 114 114 114 114 114 114 113 113 112 112 112 111 111 111 111 111 111 111 111 111 110 110 110 110 110 110 110 110 110 109 109 109 109 108 108 107 107 106 106
106 107 107 107 107 108 108 108 108 108 108 108 109 109 109 110 110 111 111 111 111 112 112 112 112 113 113 113 113 113 113 113 113 113 114 114 114 115 115 115 116 116 116 116 116 116 116 116 115 115 115 114 114 114 113 113 112 112 111 111 111 111 111 111 111 111 111 111 110 110 110 110 110 110 110 110 109 109 109 109 108 108 107 106 106 105
108 108 109 109 109 109 109 110 110 110 110 110 110 110 111 111 111 112 112 112 113 113 113 113 113 114 114 114 114 114 115 115 115 115 116 116 117 117 117 118 118 118 118 118 117 117 117 116 116 116 115 115 114 114 113 112 112 112 111 111 111 111 111 111 111 111 111 110 110 110 110 110 110 110 109 109 109 109 108 108 108 107 106 106 105 104
108 109 110 110 111 111 111 111 111 111 111 111 111 111 112 112 113 113 113 113 114 114 114 114 115 115 115 116 116 116 117 117 117 118 118 119 119 119 119 120 119 119 119 119 118 118 117 117 117 116 116 115 114 114 113 112 112 111 111 111 111 111 111 111 111 111 110 110 110 110 110 109 109 109 109 108 108 108 108 107 107 106 106 105 105 104
109 109 110 111 111 112 112 112 112 112 112 112 112 112 113 113 114 114 114 115 115 115 116 116 117 117 117 118 118 119 119 119 120 120 120 121 121 121 121 121 120 120 120 119 119 118 118 117 117 116 115 115 114 113 113 112 112 111 111 111 111 111 111 110 110 110 110 110 109 109 109 109 108 108 108 108 107 107 107 106 106 105 105 104 104 103
109 110 110 111 112 112 113 113 113 113 113 113 114 114 114 114 115 115 115 116 116 117 118 118 119 119 120 120 121 121 121 122 122 122 122 122 122 122 122 122 121 121 120 120 119 118 118 117 116 116 115 114 113 113 112 112 111 111 111 111 111 110 110 110 110 109 109 109 108 108 108 108 107 107 107 106 106 106 105 105 105 104 104 103 103 102
110 111 111 112 112 113 113 114 114 114 114 114 115 115 116 116 116 117 117 118 118 119 120 121 122 122 122 123 123 123 123 123 124 124 124 123 123 123 123 122 122 121 120 120 119 118 117 116 116 115 114 114 113 113 112 112 111 111 111 110 110 110 109 109 109 108 108 108 107 107 107 106 106 106 105 105 105 104 104 104 103 103 102 102 102 101
112 113 113 113 114 114 115 115 115 116 116 116 117 117 117 118 118 119 119 120 121 121 122 123 124 125 125 125 125 125 125 125 125 125 125 124 124 124 123 123 122 121 120 119 119 118 117 116 115 114 114 113 113 112 112 112 111 111 110 110 109 109 109 108 108 107 107 106 106 106 105 105 105 104 104 104 103 103 103 102 102 101 101 101 101 100
115 115 116 116 116 116 117 117 118 118 118 118 118 119 119 120 120 121 122 122 123 124 124 125 126 126 127 127 126 126 126 126 126 126 125 125 125 124 123 123 122 121 120 119 118 117 116 115 115 114 114 113 113 112 112 111 111 110 110 109 109 108 108 107 107 106 106 105 105 104 104 104 103 103 103 102 102 101 101 101 100 100 100 100 100 100
118 118 118 118 119 119 119 119 120 120 120 120 120 121 121 122 122 123 124 124 125 126 126 127 127 128 128 128 128 127 127 127 126 126 126 125 125 124 123 122 122 121 119 119 117 117 116 115 115 114 114 113 113 112 111 111 110 109 109 108 108 107 107 106 105 105 104 104 104 103 103 102 102 102 101 101 100 100 100 99 99 99 99 99 99 99
120 120 120 120 120 121 121 121 121 122 122 122 122 123 123 123 124 124 125 126 127 127 127 128 128 128 129 129 129 128 128 127 127 126 126 125 125 124 123 122 121 120 119 118 117 117 116 116 115 115 114 113 113 112 111 110 109 109 108 107 107 106 106 105 104 104 103 103 102 102 102 101 101 100 100 100 99 99 99 99 98 98 98 98 98 98
121 121 121 121 121 122 122 122 123 123 123 123 123 124 124 125 125 125 126 127 127 128 128 129 129 129 129 129 129 128 128 127 127 126 126 125 124 124 123 121 121 120 119 118 117 117 116 116 116 115 114 113 112 111 110 109 109 108 107 107 106 105 105 104 103 103 102 102 101 101 101 100 100 99 99 99 98 98 98 98 98 97 97 97 97 97
122 122 121 122 122 122 123 123 123 123 124 124 124 125 125 126 126 126 126 127 128 128 128 129 129 130 130 129 129 128 128 127 127 126 126 125 124 123 122 121 121 120 119 118 118 117 117 116 116 115 114 113 112 111 110 109 108 108 107 106 105 105 104 103 103 102 102 101 101 100 100 99 99 99 98 98 98 97 97 97 97 96 96 96 96 96
122 122 122 122 122 122 123 123 123 124 124 124 125 125 126 126 126 126 127 127 128 128 128 129 129 129 130 129 128 128 127 126 126 126 126 125 124 123 123 122 121 120 120 119 119 118 117 116 116 115 113 112 111 110 109 108 108 107 106 105 105 104 103 102 102 101 101 100 100 99 99 99 98 98 98 97 97 97 96 96 95 95 95 94 94 94
122 122 122 122 122 123 123 123 124 124 124 125 125 125 126 126 126 126 127 127 127 128 128 128 129 129 129 129 128 127 126 126 126 126 126 125 125 124 123 122 122 121 121 120 120 119 117 116 115 114 113 112 111 110 109 108 107 106 105 105 104 103 102 102 101 100 100 100 99 99 98 98 98 97 97 96 96 95 95 94 94 93 93 93 92 92
123 122 122 122 123 123 123 123 123 124 124 125 125 125 126 126 126 126 126 127 127 127 127 127 128 129 129 129 128 127 126 125 125 125 125 126 125 124 123 123 122 122 121 121 120 119 117 116 115 114 112 111 110 109 108 107 106 105 105 104 103 102 101 101 100 100 99 99 98 98 97 97 97 96 96 95 94 94 93 93 92 92 91 91 91 90
123 122 122 123 123 123 123 123 124 124 124 125 125 125 125 126 126 126 126 126 126 126 126 127 127 128 129 129 128 126 125 125 124 125 125 125 125 124 123 123 123 123 122 121 120 118 117 115 114 113 112 110 109 108 107 107 106 105 104 103 102 101 100 100 99 99 98 98 97 97 96 96 95 95 94 94 93 92 92 91 91 90 90 90 90 89
123 123 122 123 123 123 123 123 123 124 124 124 124 125 125 125 125 125 125 125 125 126 126 126 127 127 128 128 128 126 125 124 124 124 124 125 125 124 123 123 123 122 121 120 119 117 116 114 113 112 111 110 109 108 107 106 105 104 102 101 101 100 99 99 98 98 97 97 96 96 95 95 94 93 93 92 91 91 90 90 90 89 89 89 89 89
123 122 122 122 123 123 123 123 123 123 123 124 124 124 124 125 125 125 125 125 125 125 125 126 126 127 127 127 127 126 125 124 124 124 124 125 125 124 123 123 122 121 120 119 117 116 114 113 112 111 110 109 108 107 106 105 104 102 101 100 99 99 98 97 97 96 96 95 95 94 94 93 92 92 91 91 90 90 89 89 89 89 88 88 88 88
123 122 122 122 122 122 123 123 123 123 123 123 123 124 124 124 124 124 124 124 125 125 125 125 126 126 126 127 126 126 124 124 123 124 124 124 124 124 123 122 121 120 119 117 116 114 113 112 111 110 109 108 107 106 105 103 102 101 100 99 98 97 97 96 95 95 94 93 93 92 92 91 91 90 90 89 89 89 88 88 88 88 88 87 87 87
123 122 122 122 122 122 123 122 122 122 122 123 123 123 124 124 124 124 124 124 124 124 125 125 125 126 126 126 125 125 123 123 123 123 123 123 124 123 121 120 119 118 117 116 114 113 112 111 110 109 108 107 106 105 103 102 101 100 99 98 97 96 95 94 94 93 92 91 91 90 90 89 89 89 89 89 88 88 88 88 87 87 87 86 86 86
123 123 122 122 122 122 122 122 122 122 122 122 123 123 124 124 124 124 124 124 124 124 125 125 125 125 125 125 125 124 122 122 122 122 122 123 123 121 119 117 117 116 115 114 112 111 110 109 108 107 106 105 104 103 102 101 100 98 97 96 95 94 93 92 91 91 90 89 89 89 88 88 88 88 88 88 87 87 87 87 86 86 86 85 85 85
123 123 122 122 122 122 122 122 122 122 122 122 123 123 123 124 124 124 124 124 124 124 125 125 125 124 124 124 124 123 122 121 120 120 120 121 120 119 116 115 114 113 112 111 110 109 108 107 107 106 105 104 103 102 101 99 98 97 96 94 93 92 91 90 89 89 88 88 87 87 87 87 87 87 87 87 86 86 86 86 85 85 85 84 84 84
122 122 122 122 122 122 122 122 122 122 122 122 122 123 123 123 123 124 124 124 124 124 124 124 124 124 124 123 123 122 120 119 118 118 117 118 117 115 113 112 111 110 109 108 107 106 106 106 105 104 103 102 101 100 99 98 97 95 94 92 91 90 89 88 88 87 87 87 86 86 86 86 86 86 86 85 85 85 85 85 84 84 84 84 84 84
122 122 122 122 121 121 121 122 122 122 122 122 122 122 122 123 123 123 123 123 123 123 123 123 123 123 123 122 121 120 118 116 115 114 114 114 113 111 109 108 107 107 106 105 104 104 104 104 103 102 101 100 99 98 97 96 95 93 92 90 89 88 87 87 86 86 86 86 86 85 85 85 85 84 84 84 84 84 84 84 84 84 84 85 85 85
122 122 122 121 121 121 121 121 121 121 122 122 122 122 122 122 122 123 123 122 122 122 122 122 122 122 121 120 119 118 115 113 111 110 109 109 108 107 106 104 103 103 103 102 102 101 101 101 101 100 99 98 97 96 95 93 92 91 90 89 88 87 86 86 86 86 85 85 85 85 84 84 83 83 83 83 83 84 84 84 84 85 85 85 86 86
121 121 121 121 121 121 121 121 121 121 121 121 121 121 121 122 122 122 122 121 121 120 120 120 120 119 118 117 116 114 112 109 108 106 105 105 104 104 102 101 100 100 100 99 99 99 99 98 98 97 96 95 94 93 92 91 90 89 88 88 87 86 86 86 85 85 85 85 84 84 83 83 83 83 83 83 84 84 85 85 85 86 86 87 87 88
121 121 121 121 121 121 121 120 120 120 120 120 120 120 120 120 121 121 121 119 118 118 118 117 116 115 114 113 111 109 107 105 104 102 101 101 101 100 99 98 97 97 97 96 96 96 96 95 95 94 93 93 92 91 90 89 88 88 87 87 87 86 86 86 85 85 85 84 84 83 83 83 83 83 84 84 85 85 86 86 87 87 87 88 88 88
121 121 121 121 120 120 120 120 120 120 120 119 119 119 118 118 119 119 118 116 115 114 113 112 111 110 109 108 107 105 103 102 100 98 97 97 97 97 96 95 94 94 93 93 93 93 93 92 91 91 90 90 89 89 88 87 87 87 87 87 87 86 86 85 85 85 84 84 84 84 84 84 84 84 85 85 86 86 87 87 88 88 88 88 89 89
121 121 121 120 120 120 119 119 119 118 118 118 117 117 116 115 115 114 113 112 111 110 109 107 106 105 104 103 102 101 99 98 96 95 94 94 94 94 93 92 92 91 90 90 90 90 90 89 88 88 88 88 87 87 87 87 86 86 86 86 86 86 85 85 85 84 84 84 84 85 85 85 85 85 86 86 86 87 87 87 88 88 88 88 88 89
120 120 120 119 118 118 117 117 116 116 115 114 113 112 111 110 109 108 107 106 105 104 103 102 101 100 99 98 98 97 96 94 92 91 91 91 91 91 90 90 89 88 87 86 86 87 87 87 86 86 86 86 86 86 86 86 86 86 85 85 85 85 85 84 84 85 85 85 86 86 86 87 87 87 87 87 87 87 87 87 87 87 87 87 87 88
118 118 117 116 116 115 114 113 112 112 111 110 108 107 106 105 104 103 102 101 100 99 98 97 96 95 94 94 93 93 92 91 89 88 87 88 88 87 87 86 86 85 84 83 83 84 84 85 85 85 85 86 86 86 86 86 85 85 85 85 84 84 84 84 85 85 86 87 87 88 88 88 88 88 88 87 87 87 87 87 87 87 87 86 86 87
115 114 113 112 111 110 109 108 107 106 105 104 103 102 101 100 99 97 96 96 95 94 93 93 92 91 90 90 89 89 88 87 86 85 84 84 84 84 84 83 83 83 82 82 82 82 82 83 84 84 85 85 85 86 86 85 85 85 84 84 84 84 84 85 85 86 87 88 88 89 89 89 89 89 88 88 88 87 87 87 87 86 86 85 85 86
110 109 108 107 106 105 104 103 102 101 100 99 98 97 96 94 93 93 92 91 90 89 88 88 88 87 87 86 86 85 84 83 82 81 81 81 81 81 81 81 81 81 81 81 81 81 82 82 83 83 84 84 84 85 85 85 84 84 84 84 85 85 85 86 86 87 88 88 89 89 89 89 89 89 89 89 88 88 87 87 86 86 85 85 85 85
104 103 102 101 100 99 98 97 96 95 94 93 93 91 90 90 89 88 87 86 85 85 84 84 83 83 83 83 82 82 81 80 79 78 78 78 78 79 79 79 79 80 80 81 81 81 82 82 82 82 83 84 84 84 84 84 84 84 84 85 86 86 87 87 88 88 88 89 89 89 89 89 89 89 89 89 88 88 87 86 86 85 85 85 85 85
98 97 96 95 94 93 93 92 91 90 89 88 87 86 86 85 84 83 83 82 81 81 80 79 79 79 78 78 78 78 78 77 76 76 76 76 76 77 78 78 78 79 80 80 81 81 81 82 82 82 82 83 83 84 84 84 84 85 86 86 87 87 88 88 88 88 88 89 89 89 89 89 89 89 89 88 88 88 87 87 86 86 85 85 85 84
92 92 91 90 89 88 87 86 86 85 84 83 83 82 81 80 80 79 78 78 77 77 76 76 75 75 74 74 74 74 75 74 74 74 74 75 75 76 77 77 78 78 79 80 80 80 81 81 81 82 82 82 83 84 84 85 85 86 87 87 88 88 88 88 88 88 88 88 88 88 88 88 88 88 88 88 88 88 87 87 87 86 86 85 84 84
87 86 85 84 84 83 82 82 81 80 79 79 78 77 76 76 75 75 74 73 73 73 72 72 72 71 71 71 71 72 72 73 73 73 74 74 75 75 76 77 78 78 78 79 79 80 80 81 81 82 82 83 83 84 85 86 86 87 87 88 88 89 89 88 88 88 87 87 87 87 87 87 87 87 87 88 88 88 88 88 87 87 86 85 84 82
81 81 80 79 79 78 77 77 76 75 74 74 73 72 72 71 70 70 70 70 69 69 69 69 69 69 69 69 70 70 71 72 72 73 73 74 74 75 76 77 77 78 78 78 79 79 80 80 81 82 82 83 84 85 85 86 86 87 87 87 88 88 88 88 87 87 86 86 86 86 86 85 86 86 87 87 87 88 88 88 87 86 85 84 82 80
76 75 75 74 73 73 72 71 71 70 69 68 68 67 67 66 66 66 66 66 67 67 67 67 68 68 68 69 69 70 70 71 72 72 73 73 74 74 75 76 77 77 78 78 78 79 80 80 81 82 83 84 84 85 85 86 86 86 86 86 86 87 87 86 86 86 85 85 84 84 84 84 85 85 86 87 87 87 87 87 86 85 83 82 80 79
71 70 69 69 68 67 66 65 65 64 64 63 63 63 63 63 63 64 64 65 65 66 66 67 67 68 68 69 69 69 70 70 71 71 72 72 73 74 74 75 76 77 77 78 79 80 80 81 82 82 83 83 84 84 84 84 84 84 84 84 84 85 85 85 85 84 84 83 83 83 83 83 84 85 85 86 86 86 86 85 84 83 81 80 78 77
65 64 63 62 61 61 60 60 60 60 60 60 60 61 61 61 62 63 63 64 65 65 66 67 67 68 68 69 69 69 69 69 70 70 71 72 72 73 74 74 75 76 77 79 80 80 81 81 82 82 82 82 82 83 83 83 82 82 82 82 82 82 83 83 83 82 82 82 82 82 82 82 83 84 85 85 85 85 84 83 82 81 79 78 77 76
58 57 57 56 56 56 56 56 57 57 57 58 59 59 60 61 61 62 63 64 65 65 66 66 67 68 68 69 69 68 68 68 69 69 70 71 71 72 73 74 75 76 78 79 80 81 81 81 81 81 81 81 81 81 81 81 80 80 80 80 80 80 80 81 81 81 81 81 81 81 81 82 82 83 83 83 83 83 82 81 80 78 77 76 75 74
52 53 53 53 53 54 54 55 55 56 57 58 58 59 60 60 61 62 63 64 64 65 65 66 67 67 68 68 68 68 68 68 68 68 69 70 71 72 73 75 76 77 78 79 80 80 80 80 80 80 80 79 79 79 78 78 78 78 78 78 78 78 78 79 79 79 79 80 80 81 81 81 81 81 81 81 81 80 80 78 77 76 75 74 73 72
50 51 51 52 52 53 54 54 55 56 57 57 58 59 60 60 61 62 63 63 64 64 65 65 66 67 67 68 68 68 68 68 68 68 69 70 71 72 73 75 76 76 77 78 78 79 79 79 79 78 78 78 77 77 76 76 75 76 76 76 77 77 77 77 78 78 79 79 80 80 80 80 79 79 79 79 79 78 77 76 75 74 73 71 70 69
49 50 51 51 52 53 53 54 55 55 56 57 58 59 59 60 61 62 62 63 64 64 65 65 65 66 67 67 68 68 68 69 69 69 70 71 72 73 73 74 75 76 77 77 77 77 78 77 77 77 76 76 75 75 74 73 73 74 74 75 75 76 76 77 77 78 78 78 79 79 78 78 78 77 77 77 77 76 76 75 73 72 70 69 68 67
49 49 50 51 51 52 53 54 54 55 56 57 58 58 59 60 61 61 62 63 63 64 64 65 65 66 67 67 68 68 69 70 70 70 71 71 72 73 73 74 75 75 76 76 76 76 76 76 75 75 74 74 73 72 72 72 72 72 73 73 74 75 75 76 77 77 77 78 77 77 77 76 76 76 75 75 75 75 74 73 72 70 68 67 66 65
49 49 50 50 51 52 53 53 54 55 56 57 57 58 59 60 60 61 62 62 63 63 64 65 65 66 67 67 68 68 69 69 70 70 71 71 72 72 73 73 74 74 75 75 75 75 75 75 74 73 72 72 71 70 70 70 71 71 72 73 73 74 75 76 76 77 77 76 76 76 75 75 74 74 74 73 73 73 73 72 71 69 68 66 64 63
49 49 50 51 52 52 53 54 54 55 56 57 57 58 59 59 60 61 61 62 62 63 64 65 66 66 67 67 68 68 68 68 68 69 69 70 71 71 72 72 73 73 73 73 73 74 74 74 73 72 71 70 69 69 69 69 70 71 71 72 73 74 74 75 75 75 75 75 75 74 74 73 73 72 72 72 71 71 71 71 70 69 67 65 64 63
49 50 50 51 52 52 53 54 54 55 56 56 57 58 58 59 59 60 61 61 62 63 64 64 65 66 67 67 67 67 67 67 67 67 68 69 69 70 70 71 71 71 71 72 72 72 72 72 72 72 70 69 68 67 67 68 69 70 71 72 72 73 73 73 74 74 73 73 73 73 72 72 72 71 70 70 70 69 69 69 69 68 67 65 64 62
49 50 50 51 51 52 53 53 54 54 55 56 56 57 58 58 59 59 60 61 61 62 63 64 64 65 66 66 66 65 65 65 65 66 67 67 68 68 69 69 69 69 69 69 70 70 70 71 71 71 70 69 67 67 67 67 68 69 70 71 72 72 72 72 72 72 71 71 71 71 71 70 70 70 69 68 68 67 67 67 67 66 65 64 63 62
Wind_Direction
278 278 279 279 279 279 280 280 281 281 281 282 282 282 282 282 282 283 283 283 283 284 284 284 285 285 286 286 286 286 286 286 287 287 287 287 287 288 288 288 289 289 289 289 289 289 289 290 290 290 290 290 290 290 290 290 290 290 289 289 289 289 288 288 288 288 288 287 287 287 287 287 287 287 287 287 287 286 286 286 286 286 286 285 285 285
278 279 279 279 280 280 280 281 281 282 282 282 282 282 282 282 282 283 283 283 283 284 284 285 285 286 286 286 286 287 287 287 287 287 287 288 288 288 289 289 289 289 289 289 290 290 290 290 290 290 290 290 290 290 290 290 290 289 289 289 288 288 288 288 288 288 288 287 287 287 287 287 287 287 287 287 287 287 287 286 286 286 286 286 286 286
279 279 280 280 280 281 281 281 282 282 282 282 282 282 282 282 283 283 283 283 284 284 285 285 286 286 286 286 287 287 287 287 287 287 288 288 288 289 289 289 289 290 290 290 290 290 290 290 290 290 290 290 290 290 290 290 289 289 289 288 288 288 288 288 287 287 287 287 287 287 287 287 287 287 287 287 287 287 287 287 286 286 286 286 286 286
279 280 280 281 281 281 282 282 282 282 282 282 282 282 282 283 283 283 283 284 284 285 285 285 286 286 286 286 287 287 287 287 288 288 288 288 289 289 289 289 290 290 290 290 290 290 290 290 290 290 290 290 290 290 290 289 289 288 288 288 288 287 287 287 287 287 287 287 287 287 287 287 287 287 287 287 287 287 287 287 287 287 286 286 286 286
279 280 280 281 281 282 282 282 282 282 282 282 282 282 283 283 283 283 284 284 285 285 285 286 286 286 286 286 287 287 287 288 288 288 288 289 289 289 289 289 290 290 290 290 290 290 290 290 290 290 290 290 290 289 289 289 288 288 287 287 287 287 287 287 287 287 287 287 287 287 287 287 287 287 287 287 287 287 287 287 287 287 287 287 286 286
279 280 280 281 281 281 282 282 282 282 282 282 282 282 283 283 283 284 284 284 285 285 285 286 286 286 286 287 287 287 287 288 288 288 288 289 289 289 289 289 290 290 290 290 290 290 290 290 290 290 290 289 289 289 288 288 288 287 287 287 287 287 287 287 287 287 287 287 287 287 287 287 287 287 287 287 287 287 287 287 287 287 287 287 287 286
279 279 280 280 280 281 281 281 281 282 282 282 282 282 282 283 283 284 284 284 285 285 285 286 286 286 286 287 287 287 287 288 288 288 288 289 289 289 289 289 289 290 290 290 290 290 290 290 290 290 289 289 289 288 288 287 287 287 287 287 287 287 287 287 287 287 287 287 287 287 287 287 287 287 287 287 287 287 287 287 287 287 287 287 287 286
278 278 279 279 280 280 280 280 281 281 281 281 282 282 282 283 283 284 284 284 285 285 285 285 286 286 286 286 287 287 287 288 288 288 288 288 289 289 289 289 289 289 290 290 290 290 290 290 289 289 289 288 288 288 288 287 287 287 287 287 287 287 287 287 287 287 287 287 287 288 287 287 287 287 287 287 287 287 287 287 287 287 287 287 287 286
277 278 278 278 279 279 279 280 280 280 280 281 281 282 282 283 283 283 284 284 284 285 285 285 286 286 286 286 287 287 287 287 288 288 288 288 289 289 289 289 289 289 289 289 289 289 289 289 289 289 288 288 288 288 288 287 287 287 287 287 287 287 287 288 288 288 288 288 288 288 288 288 288 288 287 287 287 287 287 287 287 287 287 286 286 286
277 277 278 278 278 278 279 279 279 280 280 280 281 281 282 282 283 283 283 284 284 284 285 285 285 286 286 286 286 287 287 287 287 288 288 288 288 289 289 289 289 289 289 289 289 289 289 289 289 289 288 288 288 288 288 288 288 288 288 288 288 288 288 288 288 288 288 288 288 288 288 288 288 288 288 287 287 287 287 287 287 287 286 286 286 286
277 277 277 277 278 278 278 278 279 279 280 280 281 281 281 282 282 283 283 283 284 284 284 285 285 285 286 286 286 286 287 287 287 288 288 288 288 288 289 289 289 289 289 289 289 289 289 289 289 289 288 288 288 288 288 288 288 288 288 288 288 288 288 288 289 289 289 289 289 289 288 288 288 288 288 288 287 287 287 287 287 286 286 286 286 286
276 277 277 277 277 278 278 278 279 279 279 280 280 281 281 281 282 282 282 283 283 284 284 284 285 285 285 286 286 286 287 287 287 288 288 288 288 288 289 289 289 289 289 289 289 289 289 289 289 289 289 289 289 288 288 288 288 288 288 289 289 289 289 289 289 289 289 289 289 289 289 288 288 288 288 288 287 287 287 287 286 286 286 286 286 285
276 276 277 277 277 277 278 278 278 279 279 279 280 280 280 281 281 282 282 282 283 283 284 284 284 285 285 285 286 286 287 287 287 288 288 288 288 288 289 289 289 289 289 289 289 289 289 289 289 289 289 289 289 289 289 289 289 289 289 289 289 289 290 290 290 290 290 290 289 289 289 289 288 288 288 288 287 287 287 287 286 286 286 286 285 285
275 276 276 276 277 277 277 278 278 279 279 279 280 280 280 281 281 281 282 282 283 283 283 284 284 285 285 285 285 286 286 287 287 288 288 288 288 289 289 289 289 289 289 289 290 289 289 289 289 289 289 289 289 289 289 289 289 290 290 290 290 290 290 290 290 290 290 290 290 289 289 289 289 288 288 288 288 287 287 287 287 286 286 286 285 285
275 275 276 276 276 277 277 278 278 278 279 279 279 280 280 281 281 281 282 282 282 283 283 284 284 284 285 285 285 286 286 287 287 288 288 288 288 288 289 289 289 290 290 290 290 290 289 290 290 290 290 290 290 290 290 290 290 290 290 290 290 290 290 290 290 290 290 290 290 289 289 289 289 288 288 288 288 287 287 287 287 286 286 286 285 285
275 275 276 276 276 277 277 278 278 278 279 279 279 280 280 281 281 281 282 282 283 283 283 284 284 284 285 285 285 286 286 287 287 287 288 288 288 288 289 289 290 290 290 290 290 290 290 290 290 290 290 290 290 290 290 290 290 290 290 290 291 291 291 291 291 290 290 290 290 290 289 289 289 289 288 288 288 288 287 287 287 286 286 286 285 285
275 276 276 276 277 277 277 278 278 278 279 279 280 280 280 281 281 282 282 282 283 283 283 284 284 285 285 285 285 285 286 286 287 287 288 288 288 288 289 289 290 290 290 290 290 290 290 290 290 290 290 290 290 290 290 290 290 290 291 291 291 291 291 291 291 290 290 290 290 290 290 289 289 289 289 288 288 288 288 287 287 287 286 286 286 285
276 276 276 277 277 277 277 278 278 279 279 279 280 280 281 281 281 282 282 282 283 283 284 284 284 284 285 285 285 286 286 287 287 287 288 288 288 289 289 289 290 290 290 290 290 290 290 290 290 290 290 290 290 290 291 291 291 291 291 291 291 291 291 291 291 291 291 290 290 290 290 290 289 289 289 289 288 288 288 288 287 287 287 286 286 286
276 276 277 277 277 278 278 278 279 279 279 280 280 281 281 281 281 282 282 283 283 283 284 284 284 284 285 285 285 286 286 287 287 288 288 288 289 289 289 289 289 289 290 290 290 290 290 291 291 291 291 291 291 291 291 291 291 291 291 291 291 291 291 291 291 291 291 291 290 290 290 290 290 289 289 289 289 289 288 288 288 287 287 287 287 286
277 277 277 278 278 278 279 279 279 279 280 280 281 281 281 282 282 282 283 283 283 283 284 284 284 284 285 285 285 286 286 287 287 288 288 289 289 289 289 289 289 290 290 290 290 291 291 291 291 291 291 291 291 291 291 291 291 291 291 291 291 291 291 291 291 291 291 291 291 290 290 290 290 290 290 289 289 289 289 288 288 288 288 287 287 286
277 277 278 278 278 279 279 279 280 280 280 281 281 281 282 282 282 283 283 283 283 284 284 284 284 284 285 285 286 286 286 287 288 288 288 289 289 289 289 289 290 290 290 290 291 291 291 291 291 291 291 291 291 291 291 291 291 291 291 291 291 291 291 291 291 291 291 291 291 290 290 290 290 290 290 290 289 289 289 289 288 288 288 288 287 287
277 278 278 278 279 279 280 280 280 280 281 281 281 282 282 282 283 283 283 283 284 284 284 284 284 285 285 285 286 286 286 287 288 288 288 288 288 289 289 289 290 290 290 291 291 291 291 291 291 291 291 291 291 291 291 291 291 291 291 291 291 292 291 291 291 291 291 291 291 290 290 290 290 290 290 290 290 289 289 289 289 288 288 288 288 287
278 278 278 279 279 279 280 280 280 281 281 281 282 282 282 283 283 283 283 284 284 284 284 284 285 285 285 285 286 286 286 287 287 288 288 288 288 289 289 290 290 290 291 291 291 291 291 291 291 291 291 291 291 291 291 291 291 291 292 292 292 292 292 291 291 291 291 291 291 291 291 290 290 290 290 290 290 290 290 289 289 289 289 288 288 288
278 278 279 279 279 280 280 280 281 281 281 281 282 282 282 282 283 283 283 283 284 284 284 285 285 285 285 285 286 286 286 287 287 288 288 288 289 289 289 290 290 290 291 291 291 291 291 291 291 291 291 291 291 291 291 292 292 292 292 292 292 292 292 292 291 291 291 291 291 291 291 291 291 291 291 291 291 290 290 290 290 289 289 289 289 289
278 278 279 279 279 280 280 280 281 281 281 281 282 282 282 282 283 283 283 283 284 284 284 285 285 285 285 285 286 286 286 287 287 288 288 289 289 289 289 290 290 290 291 291 291 291 291 291 291 291 291 291 291 291 292 292 292 292 292 292 292 292 292 292 292 292 292 292 292 292 291 291 291 291 291 291 291 291 291 290 290 290 290 290 289 289
278 279 279 279 280 280 280 280 281 281 281 281 282 282 282 282 283 283 283 283 284 284 284 285 285 285 285 285 286 286 287 287 288 288 288 289 289 289 289 290 290 290 290 290 291 291 291 291 291 291 291 291 291 292 292 292 292 293 293 293 293 293 292 292 292 292 292 292 292 292 292 292 292 292 292 292 292 291 291 291 291 291 291 290 290 290
279 279 279 280 280 280 280 280 281 281 281 281 282 282 282 282 283 283 283 283 283 284 284 284 285 285 285 286 286 287 287 288 288 288 289 289 289 289 289 290 290 290 290 290 290 290 290 291 291 291 291 291 292 292 292 293 293 293 293 293 293 293 293 293 293 293 293 293 293 293 293 293 293 293 293 292 292 292 292 292 292 292 291 291 291 291
279 279 279 280 280 280 280 280 281 281 281 281 281 282 282 282 283 283 283 283 283 284 284 284 285 285 286 286 287 287 288 288 288 289 289 289 289 289 289 289 290 290 290 290 290 290 290 291 291 291 291 292 292 292 293 293 293 293 294 294 294 294 294 294 294 294 294 294 294 294 294 294 294 293 293 293 293 293 293 293 293 293 292 292 292 292
279 279 279 279 280 280 280 280 281 281 281 281 281 282 282 282 283 283 283 283 284 284 284 285 285 286 286 287 287 288 288 288 289 289 289 289 289 289 289 289 289 290 290 290 290 290 290 291 291 291 292 292 292 293 293 293 293 294 294 294 294 294 295 295 295 295 295 295 295 295 294 294 294 294 294 294 294 294 294 293 293 293 293 293 292 292
279 279 279 279 280 280 280 280 281 281 281 281 281 281 282 282 282 283 283 283 284 285 285 285 286 286 287 287 287 288 288 288 289 289 289 289 289 289 289 289 289 290 290 290 290 291 291 291 291 292 292 292 292 293 293 293 294 294 294 294 295 295 295 295 295 295 295 295 295 295 295 295 295 294 294 294 294 294 294 294 293 293 293 293 293 293
279 279 279 279 280 280 280 280 280 281 281 281 281 281 282 282 282 283 283 284 284 285 285 286 286 286 287 287 287 288 288 288 289 289 289 289 289 289 289 289 290 290 290 290 291 291 291 291 292 292 292 293 293 293 293 294 294 294 295 295 295 295 296 296 296 296 296 296 296 296 296 295 295 295 295 295 294 294 294 294 294 293 293 293 293 293
278 279 279 279 279 279 280 280 280 280 281 281 281 281 282 282 283 283 284 284 284 285 285 286 286 286 287 287 287 288 288 288 289 289 289 289 289 289 289 290 290 290 290 290 291 291 291 292 292 293 293 293 293 294 294 294 294 295 295 295 295 296 296 296 296 296 296 296 296 296 296 296 296 296 295 295 295 294 294 294 294 294 293 293 293 293
278 278 278 279 279 279 279 280 280 280 281 281 281 282 282 283 283 283 284 284 285 285 285 286 286 286 287 287 287 287 288 288 288 289 289 289 289 289 290 290 290 290 291 291 291 291 292 292 292 293 293 293 294 294 294 295 295 295 295 296 296 296 296 296 297 297 297 297 297 297 297 296 296 296 296 296 295 295 295 294 294 294 294 294 294 293
277 278 278 278 278 279 279 280 280 280 281 281 282 282 282 283 283 284 284 284 285 285 285 286 286 286 287 287 287 287 287 288 288 289 289 289 289 290 290 290 291 291 291 292 292 292 292 292 293 293 293 294 294 294 294 295 295 295 296 296 296 297 297 297 297 297 297 297 297 297 297 297 297 297 296 296 296 296 295 295 295 295 294 294 294 294
277 277 278 278 278 279 279 279 280 280 281 281 282 282 283 283 283 284 284 284 285 285 285 286 286 286 286 287 287 288 288 288 288 289 289 289 290 290 290 291 291 292 292 292 293 293 293 293 293 294 294 294 294 294 295 295 296 296 296 297 297 297 298 298 298 298 298 298 298 298 298 297 297 297 297 297 296 296 296 296 295 295 295 295 294 294
277 277 277 278 278 279 279 279 280 280 281 281 282 282 283 283 283 284 284 285 285 285 285 286 286 286 287 287 287 288 288 289 289 289 289 290 290 290 291 291 292 292 292 293 293 293 293 294 294 294 294 294 295 295 295 296 296 297 297 298 298 298 298 298 298 298 298 298 298 298 298 298 298 298 298 297 297 297 297 296 296 296 296 295 295 295
276 277 277 278 278 279 279 279 280 280 281 281 282 282 283 283 284 284 284 285 285 285 285 286 286 286 287 287 288 288 288 289 289 290 290 290 291 291 292 292 292 292 293 293 293 293 293 294 294 294 294 295 295 296 296 297 297 298 298 299 299 299 299 299 299 299 299 299 299 298 298 299 299 298 298 298 298 298 297 297 297 297 297 296 296 296
276 277 277 277 278 278 279 279 280 281 281 282 282 283 283 284 284 284 285 285 285 285 286 286 286 287 287 287 288 288 289 289 289 290 290 291 291 292 292 292 292 292 293 293 293 293 293 294 294 294 295 295 296 296 297 297 298 298 299 299 299 299 299 299 299 299 299 299 299 299 299 299 299 299 299 299 298 298 298 298 298 298 298 297 297 297
276 276 277 277 278 279 279 280 280 281 282 282 283 283 284 284 284 285 285 285 285 286 286 286 287 287 287 288 288 288 289 289 290 290 291 291 292 292 292 292 292 292 293 293 293 293 294 294 294 295 295 296 296 297 297 298 298 299 299 299 299 299 299 299 299 299 299 299 299 299 299 299 299 299 299 299 299 299 299 299 299 299 299 299 298 298
276 276 277 278 279 279 280 281 281 282 282 283 283 284 284 284 285 285 285 286 286 286 287 287 287 288 288 288 288 289 289 289 290 290 291 291 292 292 292 292 292 293 293 293 293 294 294 294 295 295 296 296 297 297 298 298 298 299 299 299 299 299 299 299 299 299 299 299 299 300 300 300 300 300 300 299 299 299 299 299 299 299 300 300 299 299
276 277 278 279 280 281 281 282 282 283 283 283 284 284 285 285 285 286 286 286 287 287 287 288 288 288 288 288 288 289 289 290 290 291 291 291 292 292 292 292 292 293 293 293 294 294 294 295 295 295 296 296 297 297 298 298 298 299 299 299 299 299 299 299 299 299 300 300 300 300 300 300 300 300 300 300 300 300 300 300 300 300 300 300 300 300
278 279 280 280 281 282 282 283 283 283 284 284 285 285 285 286 286 287 287 287 287 287 287 288 288 288 288 288 288 289 289 290 290 291 291 291 291 292 292 292 293 293 293 294 294 294 294 295 295 295 296 297 297 297 298 298 298 299 299 299 299 299 299 299 299 300 300 300 300 300 301 301 301 301 301 301 301 300 300 300 301 301 301 301 301 301
280 280 281 282 282 283 283 284 284 284 285 285 286 286 286 286 287 287 287 287 287 287 288 288 288 288 288 289 289 289 289 290 290 290 291 291 291 292 292 293 293 293 293 294 294 294 295 295 295 296 296 297 297 298 298 298 299 299 299 299 299 299 299 299 300 300 300 301 301 301 301 301 301 301 301 301 301 301 301 301 301 301 301 301 301 301
282 282 282 283 283 284 284 285 285 285 286 286 286 286 286 286 286 287 287 287 287 287 288 288 288 289 289 289 289 290 290 290 290 291 291 291 292 292 293 293 293 293 294 294 294 294 295 295 296 296 297 297 297 298 298 299 299 299 299 299 299 299 299 300 300 301 301 301 301 302 302 302 302 302 301 301 301 301 301 301 301 301 301 301 301 300
283 283 283 284 284 284 285 285 285 285 286 286 286 286 286 287 287 287 287 287 288 288 288 289 289 289 289 290 290 290 291 291 291 292 292 292 292 293 293 293 293 294 294 294 294 294 295 295 296 297 297 297 298 298 299 299 299 299 299 299 300 300 300 300 301 301 301 302 302 302 302 302 302 302 302 301 301 301 301 301 301 301 301 301 300 300
283 283 283 284 284 284 285 285 285 286 286 286 286 287 287 287 287 288 288 288 289 289 289 289 290 290 290 291 291 291 292 292 293 293 293 293 294 294 294 294 294 294 294 294 295 295 295 296 296 297 297 298 298 299 299 300 300 300 300 300 300 301 301 301 302 302 302 303 303 303 303 303 303 302 302 302 301 301 301 301 301 301 301 301 300 300
283 284 284 284 285 285 285 286 286 287 287 287 287 288 288 288 288 289 289 289 289 290 290 290 290 290 291 291 292 292 293 293 294 294 294 295 295 295 295 295 294 295 295 295 295 296 296 297 297 298 298 299 299 300 300 301 301 301 301 301 301 302 302 303 303 303 303 304 304 304 303 303 303 303 303 302 302 302 302 302 302 302 301 301 301 300
285 286 286 286 287 287 287 287 288 288 288 288 288 289 288 289 289 289 289 289 290 290 290 290 290 291 291 291 292 292 293 294 294 295 295 295 295 295 295 295 295 295 296 296 297 297 298 298 298 299 299 300 300 301 301 302 302 302 302 302 303 303 304 304 304 304 304 304 305 304 304 304 304 303 303 303 303 303 303 303 303 303 303 302 302 301
288 288 288 288 288 288 289 289 289 289 289 289 289 289 289 289 289 289 289 290 290 290 290 290 291 291 291 292 292 293 293 294 295 295 295 295 295 295 296 296 296 296 297 297 298 299 299 299 299 300 300 301 301 302 302 303 303 303 303 304 304 304 305 305 305 305 305 305 305 305 305 305 304 304 304 304 305 304 304 304 304 304 304 303 303 302
289 289 289 289 289 289 289 288 288 288 288 288 288 288 288 288 289 289 289 290 290 290 291 291 291 291 292 292 293 294 294 295 295 295 295 295 295 296 296 296 297 297 298 299 299 300 300 300 300 301 301 302 302 303 303 303 304 304 304 305 305 305 305 306 306 306 306 306 306 306 306 305 305 305 305 305 306 306 305 305 305 305 304 304 304 303
288 288 288 288 288 288 288 288 288 288 288 288 288 288 289 289 289 289 290 290 291 291 291 291 292 292 293 293 294 294 295 295 296 296 296 296 296 296 296 297 298 298 299 300 300 301 301 301 301 302 302 303 303 304 304 304 305 305 305 305 306 306 306 306 306 306 306 306 307 306 306 306 306 306 306 306 306 306 306 305 305 305 304 304 304 304
Height
10593 10592 10592 10592 10591 10590 10589 10589 10590 10589 10588 10586 10586 10585 10583 10581 10580 10578 10576 10575 10573 10571 10569 10567 10566 10565 10563 10562 10561 10560 10558 10557 10556 10555 10553 10552 10551 10550 10548 10547 10545 10544 10542 10541 10539 10537 10536 10534 10532 10530 10528 10526 10525 10523 10521 10519 10517 10515 10513 10511 10510 10508 10506 10504 10502 10500 10498 10496 10495 10493 10491 10489 10488 10486 10484 10482 10480 10478 10477 10475 10474 10473 10472 10471 10470 10470
10587 10586 10586 10585 10585 10585 10583 10582 10583 10583 10581 10580 10578 10578 10576 10575 10572 10570 10569 10568 10566 10564 10563 10561 10559 10558 10556 10555 10553 10552 10551 10550 10548 10546 10545 10544 10543 10541 10540 10538 10536 10535 10533 10531 10530 10528 10527 10525 10523 10521 10520 10518 10515 10513 10511 10510 10508 10506 10504 10502 10500 10498 10496 10495 10493 10491 10490 10488 10486 10484 10482 10480 10478 10476 10475 10473 10471 10468 10467 10465 10464 10463 10462 10461 10461 10460
10580 10579 10578 10578 10578 10578 10577 10576 10576 10576 10575 10573 10571 10570 10569 10567 10565 10563 10561 10560 10559 10557 10556 10555 10553 10551 10549 10547 10546 10545 10543 10542 10540 10539 10538 10536 10535 10533 10531 10530 10528 10526 10525 10523 10521 10520 10518 10516 10515 10513 10510 10508 10506 10505 10503 10501 10499 10497 10495 10493 10491 10490 10488 10486 10484 10482 10480 10478 10476 10475 10473 10471 10469 10467 10465 10463 10461 10459 10458 10456 10455 10453 10453 10452 10451 10450
10573 10573 10571 10570 10571 10571 10570 10570 10569 10568 10567 10566 10565 10563 10561 10560 10558 10555 10554 10553 10551 10550 10548 10547 10545 10543 10541 10540 10538 10537 10536 10535 10533 10531 10530 10528 10526 10525 10523 10521 10520 10518 10516 10515 10513 10511 10510 10508 10506 10503 10501 10500 10498 10496 10494 10492 10490 10488 10486 10485 10483 10481 10479 10477 10475 10473 10472 10470 10468 10466 10464 10462 10460 10458 10456 10454 10452 10450 10448 10446 10445 10444 10443 10442 10441 10440
10566 10566 10565 10564 10563 10563 10562 10562 10562 10561 10560 10558 10557 10555 10553 10552 10550 10548 10547 10546 10545 10543 10541 10539 10537 10536 10534 10532 10531 10530 10528 10526 10525 10523 10521 10520 10518 10516 10515 10513 10511 10509 10508 10506 10504 10503 10501 10499 10497 10495 10493 10491 10489 10487 10485 10483 10481 10480 10478 10476 10474 10472 10471 10469 10467 10465 10463 10461 10460 10457 10455 10453 10451 10449 10447 10445 10443 10441 10440 10437 10436 10435 10433 10432 10431 10430
10560 10560 10559 10558 10557 10556 10555 10555 10555 10553 10552 10551 10549 10548 10546 10545 10543 10541 10540 10538 10536 10535 10533 10530 10528 10527 10526 10524 10523 10521 10520 10519 10517 10515 10513 10512 10510 10508 10506 10505 10503 10501 10499 10498 10496 10494 10492 10490 10488 10486 10484 10482 10480 10478 10476 10474 10472 10471 10469 10467 10466 10464 10462 10461 10459 10457 10455 10453 10451 10449 10446 10445 10442 10440 10438 10436 10434 10432 10430 10428 10427 10425 10424 10423 10421 10420
10553 10553 10553 10552 10550 10549 10548 10548 10547 10546 10545 10543 10541 10540 10538 10538 10536 10535 10533 10531 10529 10527 10525 10522 10520 10518 10517 10516 10515 10514 10513 10511 10509 10507 10505 10503 10502 10500 10498 10496 10495 10493 10491 10489 10487 10485 10483 10481 10480 10477 10475 10473 10471 10469 10467 10465 10463 10462 10460 10459 10457 10455 10454 10452 10450 10448 10446 10445 10442 10440 10438 10436 10433 10431 10429 10427 10425 10423 10421 10420 10418 10416 10415 10413 10412 10410
10546 10546 10545 10545 10544 10542 10541 10540 10539 10538 10538 10536 10533 10532 10531 10530 10529 10528 10526 10524 10522 10520 10517 10514 10511 10510 10508 10508 10508 10506 10505 10503 10501 10499 10497 10495 10493 10491 10490 10488 10486 10484 10482 10480 10478 10476 10475 10473 10470 10468 10466 10463 10461 10460 10458 10456 10455 10453 10451 10450 10448 10447 10445 10443 10441 10440 10438 10436 10433 10431 10429 10427 10425 10423 10420 10418 10416 10415 10413 10411 10410 10408 10406 10404 10402 10401
10540 10539 10538 10537 10536 10536 10534 10531 10530 10530 10530 10530 10527 10525 10523 10523 10521 10519 10517 10516 10514 10512 10510 10507 10503 10501 10499 10499 10499 10498 10497 10495 10493 10491 10489 10487 10485 10483 10481 10479 10478 10475 10473 10471 10470 10468 10466 10463 10461 10458 10456 10454 10452 10450 10449 10448 10446 10445 10443 10441 10440 10438 10436 10435 10433 10431 10429 10427 10425 10423 10420 10418 10416 10413 10411 10410 10408 10406 10405 10403 10401 10399 10397 10395 10393 10391
10533 10532 10531 10530 10528 10528 10527 10525 10522 10521 10522 10522 10521 10518 10516 10516 10513 10511 10508 10506 10505 10503 10502 10500 10496 10493 10491 10490 10489 10490 10489 10487 10485 10483 10481 10479 10477 10475 10472 10470 10468 10466 10465 10462 10460 10458 10456 10453 10451 10448 10446 10445 10443 10441 10440 10438 10437 10436 10434 10433 10431 10429 10428 10426 10424 10422 10420 10418 10416 10413 10411 10409 10406 10405 10403 10401 10399 10397 10395 10394 10392 10390 10388 10386 10384 10382
10525 10524 10523 10522 10521 10520 10519 10518 10515 10514 10514 10514 10513 10511 10509 10508 10507 10505 10501 10498 10495 10493 10493 10491 10489 10486 10484 10481 10480 10480 10480 10479 10477 10474 10471 10470 10468 10466 10465 10462 10460 10458 10456 10453 10451 10448 10446 10444 10441 10439 10436 10435 10433 10432 10431 10430 10428 10426 10425 10423 10421 10420 10418 10416 10415 10413 10411 10409 10406 10404 10402 10400 10398 10395 10393 10391 10390 10388 10386 10385 10383 10381 10379 10377 10375 10373
10517 10516 10515 10515 10513 10511 10510 10509 10508 10507 10506 10506 10505 10502 10500 10499 10499 10498 10496 10491 10487 10485 10484 10482 10480 10477 10476 10475 10473 10471 10470 10470 10468 10465 10463 10460 10458 10457 10456 10454 10451 10449 10446 10444 10441 10439 10436 10435 10432 10430 10427 10426 10425 10423 10421 10420 10418 10417 10415 10414 10412 10411 10409 10408 10406 10403 10401 10400 10397 10395 10393 10390 10388 10386 10385 10383 10381 10379 10377 10376 10374 10372 10370 10368 10366 10364
10509 10508 10508 10506 10505 10503 10503 10501 10500 10499 10498 10498 10496 10494 10491 10490 10490 10490 10488 10485 10481 10478 10476 10474 10471 10467 10466 10466 10466 10465 10463 10461 10460 10456 10454 10451 10448 10447 10446 10445 10441 10439 10436 10435 10432 10429 10427 10425 10423 10420 10418 10416 10415 10414 10412 10411 10409 10408 10406 10405 10403 10401 10400 10398 10396 10394 10392 10390 10388 10385 10383 10381 10379 10377 10375 10373 10371 10370 10368 10366 10365 10363 10361 10359 10357 10355
10501 10501 10500 10499 10498 10496 10495 10494 10493 10491 10490 10488 10488 10486 10484 10482 10481 10480 10479 10476 10473 10471 10470 10468 10464 10459 10456 10456 10457 10458 10456 10455 10452 10449 10445 10441 10439 10438 10438 10436 10432 10428 10426 10425 10423 10419 10416 10416 10414 10411 10409 10407 10406 10405 10403 10401 10400 10398 10397 10395 10394 10393 10391 10389 10387 10385 10383 10381 10378 10376 10374 10371 10370 10367 10365 10363 10361 10360 10358 10356 10355 10353 10351 10349 10348 10346
10494 10493 10493 10491 10490 10488 10488 10487 10486 10484 10481 10480 10479 10478 10476 10474 10473 10471 10470 10468 10465 10463 10461 10460 10456 10451 10448 10446 10448 10450 10450 10448 10445 10441 10438 10433 10430 10429 10429 10428 10424 10420 10416 10415 10413 10410 10407 10406 10405 10402 10400 10398 10397 10395 10394 10393 10391 10390 10388 10386 10385 10384 10382 10380 10378 10376 10374 10371 10369 10366 10364 10362 10360 10358 10356 10354 10352 10350 10348 10347 10345 10343 10341 10340 10338 10336
10486 10486 10485 10483 10482 10481 10480 10480 10478 10476 10474 10472 10471 10470 10469 10466 10464 10463 10461 10460 10458 10455 10454 10451 10448 10443 10439 10436 10438 10441 10443 10442 10438 10433 10430 10426 10422 10420 10420 10420 10416 10411 10406 10405 10403 10401 10398 10396 10395 10393 10391 10390 10388 10386 10385 10383 10382 10380 10379 10378 10376 10375 10373 10371 10369 10367 10365 10362 10360 10357 10355 10353 10350 10348 10346 10345 10343 10341 10339 10337 10336 10334 10332 10330 10329 10327
10480 10479 10478 10476 10475 10473 10472 10471 10471 10469 10466 10465 10463 10462 10460 10458 10456 10455 10453 10452 10450 10448 10446 10444 10441 10437 10432 10428 10426 10429 10433 10435 10433 10427 10422 10418 10414 10411 10411 10411 10408 10403 10398 10395 10394 10392 10390 10388 10386 10384 10382 10380 10379 10377 10376 10374 10373 10371 10370 10369 10368 10366 10365 10362 10360 10358 10355 10353 10350 10348 10345 10343 10341 10339 10336 10335 10333 10331 10330 10328 10326 10325 10323 10321 10320 10318
10472 10471 10470 10469 10467 10465 10464 10464 10463 10461 10459 10458 10456 10454 10452 10451 10449 10448 10446 10445 10442 10440 10438 10436 10433 10430 10426 10422 10418 10418 10422 10426 10425 10420 10415 10410 10406 10403 10401 10401 10399 10395 10390 10387 10385 10383 10381 10380 10377 10375 10373 10371 10370 10368 10366 10365 10364 10363 10361 10360 10359 10357 10355 10353 10351 10348 10346 10343 10341 10338 10336 10334 10331 10330 10327 10325 10324 10322 10320 10318 10317 10315 10313 10311 10310 10308
10464 10463 10463 10461 10460 10458 10456 10456 10455 10454 10452 10450 10448 10446 10445 10442 10440 10440 10438 10436 10435 10433 10431 10428 10425 10421 10419 10416 10413 10411 10413 10416 10416 10412 10407 10403 10398 10394 10392 10391 10390 10386 10381 10378 10377 10375 10373 10370 10368 10366 10364 10362 10360 10358 10357 10356 10355 10354 10353 10351 10350 10348 10346 10345 10342 10340 10337 10335 10332 10330 10327 10325 10322 10320 10318 10316 10315 10313 10311 10309 10308 10306 10304 10302 10300 10299
10456 10455 10455 10453 10452 10451 10448 10447 10446 10446 10445 10443 10441 10439 10437 10434 10432 10431 10430 10428 10426 10425 10423 10420 10417 10414 10411 10409 10406 10405 10405 10408 10408 10405 10400 10395 10390 10386 10383 10383 10381 10377 10373 10370 10368 10367 10365 10361 10358 10356 10355 10353 10351 10350 10348 10346 10346 10345 10344 10343 10341 10340 10338 10336 10333 10331 10328 10326 10323 10321 10318 10316 10313 10311 10310 10308 10306 10304 10302 10300 10298 10296 10295 10293 10291 10290
10449 10447 10446 10446 10445 10444 10441 10438 10438 10438 10438 10436 10433 10431 10428 10426 10425 10423 10421 10420 10418 10416 10415 10411 10409 10406 10404 10402 10400 10398 10398 10400 10400 10396 10391 10387 10382 10378 10375 10375 10373 10370 10365 10361 10360 10358 10356 10353 10350 10347 10345 10343 10342 10340 10339 10338 10337 10336 10335 10334 10333 10331 10329 10327 10325 10322 10320 10317 10315 10312 10310 10308 10305 10303 10301 10299 10297 10295 10293 10291 10289 10288 10285 10284 10282 10280
10441 10440 10438 10438 10438 10437 10434 10431 10430 10430 10430 10428 10426 10423 10420 10418 10416 10415 10412 10411 10410 10408 10406 10403 10400 10398 10396 10395 10392 10390 10391 10392 10391 10389 10385 10380 10373 10368 10366 10367 10366 10362 10358 10354 10351 10350 10348 10344 10341 10338 10336 10335 10333 10331 10330 10329 10328 10327 10326 10325 10324 10322 10320 10318 10316 10314 10311 10309 10306 10304 10301 10300 10297 10295 10293 10290 10288 10286 10284 10282 10280 10278 10276 10275 10273 10271
10434 10432 10431 10430 10430 10428 10426 10425 10423 10421 10421 10420 10418 10416 10413 10411 10410 10407 10405 10403 10401 10400 10397 10395 10392 10390 10388 10386 10384 10383 10383 10383 10383 10381 10378 10373 10366 10361 10359 10359 10358 10355 10350 10346 10345 10342 10339 10335 10332 10330 10328 10326 10324 10323 10321 10320 10319 10318 10318 10316 10315 10313 10311 10310 10308 10305 10303 10300 10298 10296 10294 10291 10289 10286 10285 10282 10280 10278 10275 10273 10271 10270 10268 10266 10265 10263
10426 10425 10423 10423 10421 10421 10419 10417 10415 10414 10413 10411 10410 10408 10406 10404 10402 10400 10398 10395 10393 10391 10389 10386 10384 10381 10378 10376 10376 10375 10374 10375 10375 10374 10370 10365 10360 10355 10353 10352 10350 10346 10342 10339 10337 10335 10331 10326 10323 10321 10320 10318 10316 10314 10313 10311 10310 10310 10309 10308 10306 10305 10303 10301 10299 10296 10295 10292 10290 10288 10286 10283 10281 10278 10276 10274 10271 10269 10267 10265 10263 10261 10260 10258 10256 10254
10418 10417 10416 10415 10414 10413 10411 10410 10408 10406 10405 10403 10401 10400 10398 10396 10394 10392 10390 10388 10386 10383 10381 10379 10376 10372 10369 10368 10366 10365 10365 10366 10367 10366 10362 10358 10353 10348 10346 10345 10343 10340 10335 10331 10330 10327 10323 10319 10316 10313 10312 10310 10308 10306 10305 10303 10302 10301 10300 10299 10297 10296 10295 10293 10290 10288 10286 10284 10281 10280 10278 10275 10273 10271 10268 10266 10263 10261 10259 10256 10255 10253 10251 10249 10247 10245
10410 10410 10408 10407 10406 10405 10403 10401 10400 10398 10396 10395 10393 10391 10390 10388 10385 10383 10381 10379 10377 10376 10375 10371 10368 10364 10361 10360 10358 10356 10356 10357 10358 10357 10355 10350 10346 10341 10338 10338 10336 10333 10328 10325 10322 10320 10316 10311 10308 10306 10305 10303 10301 10299 10297 10296 10294 10293 10291 10290 10288 10287 10285 10283 10281 10280 10277 10275 10273 10271 10269 10267 10265 10263 10260 10258 10255 10253 10250 10248 10246 10245 10243 10240 10238 10236
10403 10401 10400 10399 10398 10396 10395 10393 10392 10390 10388 10387 10385 10383 10381 10380 10378 10375 10372 10370 10369 10368 10367 10363 10360 10356 10354 10353 10350 10349 10348 10349 10349 10348 10346 10343 10338 10334 10330 10330 10328 10326 10322 10318 10315 10312 10309 10305 10301 10300 10298 10295 10293 10291 10290 10288 10286 10285 10283 10281 10280 10278 10276 10275 10273 10271 10268 10266 10265 10262 10260 10258 10256 10254 10252 10250 10247 10245 10242 10240 10238 10236 10234 10231 10229 10227
10395 10393 10392 10391 10389 10388 10386 10385 10383 10382 10380 10378 10377 10375 10373 10372 10370 10366 10363 10361 10361 10361 10358 10355 10353 10350 10348 10345 10342 10341 10341 10341 10340 10338 10337 10335 10330 10326 10323 10322 10321 10318 10315 10312 10308 10305 10303 10299 10296 10293 10291 10288 10286 10285 10283 10281 10279 10277 10275 10273 10271 10269 10268 10266 10264 10262 10260 10258 10256 10254 10252 10250 10248 10246 10244 10241 10239 10236 10234 10231 10230 10227 10225 10222 10220 10218
10386 10385 10384 10382 10381 10380 10378 10376 10375 10373 10372 10370 10368 10366 10365 10364 10362 10359 10356 10354 10353 10353 10350 10348 10346 10344 10341 10338 10335 10333 10333 10333 10332 10331 10329 10326 10322 10318 10316 10315 10313 10311 10309 10306 10302 10298 10295 10293 10290 10288 10285 10282 10280 10278 10276 10274 10272 10270 10268 10265 10263 10261 10259 10257 10255 10253 10251 10249 10247 10245 10243 10241 10240 10238 10236 10233 10231 10228 10226 10223 10221 10219 10216 10214 10211 10208
10378 10377 10376 10374 10373 10371 10370 10368 10366 10365 10363 10362 10360 10358 10357 10356 10354 10352 10350 10348 10346 10345 10343 10340 10338 10337 10335 10332 10329 10326 10324 10324 10325 10324 10322 10318 10314 10310 10309 10307 10305 10303 10302 10300 10296 10291 10288 10285 10284 10282 10279 10276 10273 10271 10269 10267 10265 10263 10261 10258 10256 10253 10251 10250 10247 10245 10243 10241 10239 10236 10235 10233 10231 10229 10227 10225 10223 10221 10218 10216 10213 10211 10208 10206 10203 10200
10370 10369 10368 10366 10365 10363 10362 10360 10358 10356 10355 10354 10352 10351 10350 10348 10347 10345 10343 10341 10340 10338 10336 10333 10331 10330 10328 10326 10323 10319 10316 10316 10316 10316 10315 10311 10306 10303 10302 10300 10297 10295 10295 10294 10291 10286 10281 10278 10276 10275 10273 10270 10266 10264 10262 10260 10258 10256 10254 10251 10249 10246 10245 10242 10240 10237 10235 10233 10230 10228 10226 10224 10222 10220 10218 10216 10215 10212 10210 10208 10205 10203 10200 10198 10195 10192
10362 10361 10360 10358 10356 10355 10354 10352 10351 10349 10348 10346 10345 10343 10342 10341 10340 10338 10336 10335 10333 10331 10329 10326 10325 10322 10321 10319 10316 10313 10310 10309 10308 10308 10307 10304 10300 10296 10295 10293 10291 10288 10287 10286 10285 10282 10278 10273 10270 10268 10266 10263 10260 10257 10255 10253 10251 10249 10246 10245 10242 10240 10238 10235 10233 10230 10227 10225 10222 10220 10217 10215 10213 10211 10209 10207 10205 10203 10201 10198 10196 10195 10192 10190 10187 10185
10355 10353 10351 10350 10349 10348 10346 10345 10343 10342 10341 10339 10338 10336 10335 10334 10333 10331 10330 10328 10326 10325 10322 10320 10318 10315 10313 10311 10310 10307 10305 10303 10302 10301 10300 10297 10293 10290 10288 10287 10285 10281 10280 10278 10277 10276 10273 10269 10265 10262 10260 10256 10254 10251 10248 10246 10243 10241 10240 10238 10235 10233 10231 10228 10226 10223 10220 10217 10214 10211 10208 10206 10204 10201 10200 10198 10195 10193 10191 10190 10188 10186 10184 10181 10180 10176
10347 10345 10344 10343 10342 10341 10340 10338 10337 10335 10334 10333 10331 10330 10328 10327 10326 10324 10323 10321 10320 10318 10316 10314 10311 10309 10306 10305 10302 10300 10299 10298 10296 10295 10293 10291 10287 10284 10282 10280 10278 10276 10273 10271 10269 10268 10265 10263 10260 10258 10254 10251 10248 10245 10243 10240 10237 10235 10233 10231 10228 10226 10223 10221 10218 10216 10213 10210 10206 10203 10200 10198 10195 10193 10190 10188 10186 10184 10182 10180 10178 10176 10175 10173 10171 10168
10339 10338 10337 10336 10335 10334 10333 10331 10330 10329 10327 10326 10325 10323 10322 10321 10319 10317 10316 10314 10313 10311 10310 10308 10305 10303 10300 10298 10296 10293 10291 10291 10290 10290 10287 10285 10282 10279 10276 10274 10272 10270 10268 10265 10262 10260 10258 10255 10253 10251 10248 10245 10241 10239 10236 10234 10231 10228 10226 10224 10221 10218 10216 10213 10211 10208 10205 10201 10198 10195 10192 10189 10186 10183 10181 10178 10176 10174 10172 10170 10169 10168 10166 10165 10163 10160
10332 10331 10330 10330 10328 10328 10326 10325 10324 10323 10321 10320 10318 10317 10316 10314 10313 10311 10310 10308 10306 10305 10303 10301 10299 10297 10295 10293 10290 10288 10285 10284 10283 10283 10281 10279 10276 10274 10271 10268 10266 10265 10262 10258 10256 10254 10251 10249 10246 10244 10242 10239 10235 10232 10230 10228 10225 10222 10220 10216 10214 10211 10208 10206 10203 10201 10198 10194 10191 10187 10184 10181 10178 10175 10172 10169 10166 10165 10162 10161 10159 10158 10156 10155 10153 10151
10326 10325 10324 10323 10322 10321 10320 10319 10318 10316 10315 10313 10312 10311 10310 10308 10306 10305 10303 10301 10300 10298 10296 10295 10293 10291 10290 10288 10285 10283 10280 10278 10277 10276 10274 10273 10271 10268 10266 10262 10260 10258 10256 10253 10250 10248 10246 10243 10240 10238 10235 10233 10230 10226 10223 10220 10218 10216 10213 10210 10206 10203 10200 10198 10196 10193 10190 10187 10183 10180 10177 10173 10170 10167 10164 10161 10158 10155 10153 10151 10149 10148 10146 10145 10143 10141
10320 10318 10318 10317 10316 10315 10314 10313 10311 10311 10310 10308 10306 10305 10304 10302 10300 10299 10297 10295 10293 10291 10290 10288 10287 10285 10284 10282 10280 10278 10276 10274 10272 10270 10268 10266 10265 10263 10260 10257 10254 10252 10250 10247 10245 10242 10240 10237 10235 10231 10229 10226 10223 10221 10218 10215 10212 10209 10206 10203 10200 10196 10193 10190 10188 10186 10183 10180 10176 10173 10170 10167 10163 10160 10156 10153 10150 10146 10143 10141 10140 10138 10136 10135 10133 10131
10314 10313 10312 10311 10310 10310 10308 10307 10306 10305 10304 10303 10301 10300 10298 10296 10295 10293 10291 10289 10287 10285 10284 10282 10281 10280 10278 10276 10275 10273 10271 10269 10267 10265 10263 10261 10260 10257 10255 10251 10248 10246 10243 10241 10239 10236 10234 10231 10229 10226 10223 10220 10217 10215 10212 10210 10206 10204 10201 10197 10193 10190 10186 10183 10181 10178 10176 10173 10170 10166 10163 10160 10156 10153 10149 10145 10141 10138 10135 10132 10130 10128 10126 10125 10123 10121
10308 10308 10307 10306 10305 10305 10303 10302 10301 10300 10298 10297 10295 10294 10292 10290 10288 10286 10285 10283 10281 10280 10278 10276 10275 10273 10272 10271 10270 10268 10266 10264 10262 10260 10258 10256 10254 10251 10249 10246 10243 10240 10238 10235 10233 10230 10228 10225 10223 10221 10218 10216 10213 10210 10206 10203 10201 10198 10196 10192 10188 10183 10179 10176 10173 10171 10168 10166 10163 10160 10156 10153 10150 10146 10141 10137 10133 10130 10127 10124 10121 10120 10118 10115 10113 10110
10304 10303 10302 10301 10301 10300 10299 10297 10296 10295 10293 10291 10290 10288 10286 10285 10283 10281 10280 10278 10276 10275 10273 10271 10270 10268 10266 10265 10264 10263 10261 10260 10258 10256 10253 10251 10249 10246 10244 10241 10238 10235 10232 10229 10226 10224 10221 10220 10216 10215 10213 10210 10208 10205 10201 10198 10196 10193 10190 10186 10182 10178 10173 10170 10166 10164 10161 10159 10156 10153 10150 10146 10143 10138 10134 10130 10126 10123 10120 10116 10114 10111 10110 10108 10105 10102
10300 10298 10298 10297 10296 10295 10293 10292 10291 10289 10287 10286 10284 10282 10281 10280 10278 10276 10274 10272 10271 10269 10268 10266 10264 10262 10260 10259 10258 10258 10256 10255 10253 10251 10248 10246 10244 10241 10238 10236 10233 10230 10227 10223 10220 10218 10215 10213 10211 10208 10206 10205 10202 10199 10196 10193 10190 10188 10185 10181 10176 10172 10168 10164 10161 10158 10156 10153 10150 10147 10144 10140 10136 10131 10127 10123 10118 10115 10112 10110 10107 10105 10102 10100 10098 10095
10295 10294 10293 10292 10291 10290 10288 10286 10285 10283 10282 10280 10279 10277 10276 10275 10273 10271 10269 10267 10265 10264 10262 10261 10259 10257 10255 10253 10252 10251 10251 10250 10248 10246 10244 10241 10238 10236 10233 10230 10227 10225 10221 10218 10215 10211 10209 10207 10205 10203 10201 10199 10196 10194 10191 10188 10185 10181 10178 10174 10170 10166 10162 10158 10155 10153 10150 10146 10143 10140 10137 10133 10130 10125 10120 10116 10111 10108 10105 10102 10100 10098 10096 10093 10091 10088
10290 10289 10288 10287 10286 10285 10283 10281 10280 10279 10277 10276 10274 10272 10271 10270 10268 10266 10264 10262 10260 10259 10257 10255 10253 10251 10250 10247 10246 10245 10244 10243 10242 10241 10238 10236 10233 10231 10228 10225 10221 10219 10216 10213 10210 10206 10203 10201 10199 10197 10195 10193 10191 10188 10186 10183 10180 10176 10171 10167 10164 10161 10157 10153 10150 10147 10143 10140 10136 10133 10130 10126 10123 10118 10113 10109 10105 10101 10098 10096 10093 10091 10090 10087 10085 10081
10285 10285 10283 10282 10281 10280 10278 10277 10276 10274 10273 10271 10269 10267 10266 10264 10263 10261 10259 10257 10255 10253 10252 10250 10248 10246 10244 10242 10240 10239 10238 10236 10235 10234 10233 10230 10228 10225 10222 10219 10216 10213 10210 10206 10203 10201 10198 10195 10193 10191 10190 10187 10185 10183 10180 10177 10174 10170 10165 10161 10158 10155 10151 10148 10145 10141 10138 10134 10130 10126 10123 10120 10116 10111 10107 10102 10098 10095 10091 10090 10087 10085 10083 10081 10078 10076
10281 10280 10278 10278 10276 10275 10273 10272 10271 10270 10268 10266 10265 10263 10261 10259 10258 10256 10254 10252 10250 10248 10246 10245 10243 10241 10238 10236 10235 10233 10231 10230 10228 10227 10225 10223 10221 10218 10216 10213 10210 10206 10203 10200 10197 10195 10192 10190 10188 10185 10183 10181 10179 10176 10174 10171 10168 10164 10160 10156 10152 10148 10145 10141 10138 10135 10131 10128 10124 10120 10116 10113 10109 10105 10100 10096 10091 10088 10085 10083 10081 10079 10077 10075 10072 10069
10276 10275 10275 10273 10272 10270 10269 10268 10266 10265 10263 10261 10260 10258 10256 10255 10253 10251 10249 10247 10245 10243 10241 10240 10238 10236 10233 10231 10230 10228 10226 10224 10222 10220 10218 10216 10213 10211 10208 10205 10203 10200 10196 10193 10190 10188 10185 10183 10181 10180 10178 10176 10173 10170 10168 10165 10161 10158 10153 10150 10146 10143 10139 10135 10131 10128 10124 10121 10117 10113 10110 10106 10102 10098 10094 10090 10086 10081 10078 10075 10073 10071 10070 10068 10066 10063
10272 10271 10270 10268 10267 10266 10265 10263 10261 10260 10258 10256 10255 10253 10251 10250 10248 10246 10244 10242 10241 10239 10236 10235 10233 10230 10228 10226 10225 10223 10221 10219 10216 10215 10212 10210 10206 10204 10201 10198 10195 10193 10190 10187 10184 10181 10178 10176 10174 10173 10171 10170 10168 10165 10161 10158 10155 10151 10147 10144 10140 10136 10133 10128 10125 10121 10117 10114 10110 10106 10103 10099 10095 10091 10088 10084 10080 10075 10071 10068 10065 10063 10062 10061 10058 10056
10268 10266 10265 10264 10263 10261 10260 10258 10257 10256 10254 10252 10250 10249 10247 10245 10243 10241 10239 10238 10236 10234 10231 10230 10227 10225 10223 10221 10220 10218 10216 10215 10212 10210 10207 10204 10201 10198 10195 10192 10189 10186 10183 10180 10178 10175 10171 10168 10166 10165 10165 10163 10162 10159 10156 10153 10149 10145 10141 10138 10134 10131 10127 10123 10119 10115 10111 10107 10103 10100 10096 10092 10089 10085 10082 10078 10074 10070 10066 10061 10058 10056 10054 10053 10051 10049
10264 10263 10261 10260 10258 10257 10256 10254 10253 10251 10250 10248 10246 10244 10242 10241 10239 10237 10235 10233 10231 10228 10226 10224 10222 10220 10217 10215 10214 10213 10211 10209 10207 10205 10201 10199 10196 10193 10190 10186 10184 10181 10178 10175 10171 10168 10165 10161 10158 10157 10157 10157 10156 10154 10151 10148 10144 10140 10136 10132 10128 10125 10121 10118 10113 10110 10106 10101 10098 10093 10090 10086 10082 10079 10076 10073 10069 10065 10061 10056 10053 10050 10047 10045 10043 10041
10260 10259 10258 10256 10255 10253 10251 10250 10248 10246 10245 10243 10241 10240 10238 10236 10234 10232 10230 10228 10226 10224 10221 10219 10216 10215 10212 10210 10208 10207 10206 10204 10201 10199 10196 10193 10190 10187 10184 10181 10179 10176 10173 10170 10166 10163 10160 10156 10152 10150 10148 10149 10150 10148 10145 10142 10139 10135 10131 10127 10123 10120 10116 10112 10108 10105 10100 10096 10092 10088 10084 10080 10076 10073 10070 10067 10064 10060 10056 10052 10048 10045 10041 10040 10037 10035